TimeEST,TemperatureF,Dew PointF,Humidity,Sea Level PressureIn,VisibilityMPH,Wind Direction,Wind SpeedMPH,Gust SpeedMPH,PrecipitationIn,Events,Conditions,WindDirDegrees,DateUTC
12:54 AM,30.0,26.1,85,30.44,9.0,NNW,3.5,-,N/A,,Clear,340,2012-12-13 05:54:00
1:54 AM,30.0,26.1,85,30.44,10.0,Calm,Calm,-,N/A,,Clear,0,2012-12-13 06:54:00
2:54 AM,28.0,26.1,92,30.45,7.0,Calm,Calm,-,N/A,,Clear,0,2012-12-13 07:54:00
3:54 AM,28.9,25.0,85,30.45,9.0,Calm,Calm,-,N/A,,Clear,0,2012-12-13 08:54:00
4:54 AM,28.0,25.0,88,30.44,8.0,North,3.5,-,N/A,,Clear,350,2012-12-13 09:54:00
5:54 AM,27.0,24.1,89,30.46,7.0,Calm,Calm,-,N/A,,Clear,0,2012-12-13 10:54:00
6:54 AM,27.0,24.1,89,30.49,4.0,Calm,Calm,-,N/A,,Clear,0,2012-12-13 11:54:00
7:54 AM,25.0,23.0,92,30.48,10.0,Calm,Calm,-,N/A,,Clear,0,2012-12-13 12:54:00
8:54 AM,30.9,26.1,82,30.49,9.0,Calm,Calm,-,N/A,,Clear,0,2012-12-13 13:54:00
9:54 AM,35.1,28.0,76,30.49,10.0,Calm,Calm,-,N/A,,Clear,0,2012-12-13 14:54:00
10:54 AM,39.9,28.0,63,30.49,10.0,NW,3.5,-,N/A,,Clear,320,2012-12-13 15:54:00
11:54 AM,43.0,24.1,47,30.45,10.0,NNE,5.8,-,N/A,,Clear,20,2012-12-13 16:54:00
12:54 PM,45.0,23.0,42,30.43,10.0,NNW,8.1,-,0.00,,Clear,340,2012-12-13 17:54:00
1:54 PM,46.0,23.0,40,30.42,10.0,NNW,5.8,-,N/A,,Clear,330,2012-12-13 18:54:00
2:54 PM,45.0,21.9,40,30.40,10.0,WNW,3.5,-,N/A,,Clear,290,2012-12-13 19:54:00
3:54 PM,44.1,21.0,40,30.40,10.0,Calm,Calm,-,N/A,,Clear,0,2012-12-13 20:54:00
4:54 PM,42.1,21.0,43,30.40,10.0,West,3.5,-,N/A,,Clear,280,2012-12-13 21:54:00
8:54 PM,30.9,23.0,72,30.38,10.0,Calm,Calm,-,N/A,,Clear,0,2012-12-14 01:54:00
9:54 PM,30.0,23.0,75,30.36,10.0,Calm,Calm,-,N/A,,Clear,0,2012-12-14 02:54:00
10:54 PM,28.9,24.1,82,30.36,10.0,Calm,Calm,-,N/A,,Clear,0,2012-12-14 03:54:00
11:54 PM,27.0,24.1,89,30.36,10.0,Calm,Calm,-,N/A,,Clear,0,2012-12-14 04:54:00